Weather in Arshty

Russia / Republic of Ingushetia     43°08′21″N   45°07′39″E
temp.,
°C
wind,
m/s
gust,
m/s
humid.,
%
clouds,
%
prec.,
mm/h
press.,
hPa
HPBL,
m
23 april, fri
fri2300:00+10w1290100 0.9 1022106
03:00+10wnw2593100 3.1 1023352
06:00+10wsw4885100 4.7 1024357
09:00+11w598397 5.6 1025543
12:00+16wsw455329 0.4 10241674
15:00+18nw33415 0.4 10221867
18:00+15nne34591 0.0 102277
21:00+11s226697 0.0 102213
24 april, sat
sat2400:00+10s11723 0.0 102011
03:00+8wsw1176100 0.0 101810
06:00+10w337253 0.0 102050
09:00+16n33543 0.0 1019720
12:00+19nne33475 0.0 10181265
15:00+20n334597 0.0 10171671
18:00+17n2259100 0.0 101831
21:00+15e1166100 0.0 102018
25 april, sun
sun2500:00+14n006790 0.0 102011
03:00+13w127186 0.0 102018
06:00+12nw12768 0.0 102138
09:00+16nne325890 0.0 1020954
12:00+18ne335297 0.0 10181445
15:00+19ene3449100 0.0 10161750
18:00+17e595596 0.0 1015460
21:00+11e3667100 0.0 1016169
26 april, mon
mon2600:00+9e1183100 0.0 101513
03:00+8wnw229186 0.0 101624
06:00+9ne1290100 0.0 1014101
09:00+14ne226887 0.0 1014673
12:00+18ne2255100 0.0 10111094
15:00+17ene33617 0.2 1011764
18:00+15nne3671100 0.3 1010207
21:00+12wnw3586100 1.4 1014262
27 april, tue
tue2700:00+10ese2397100 9.8 1015187
03:00+10w0194100 11.8 1016164
06:00+10n0193100 0.0 1017139
09:00+10nne2393100 0.1 1018295
12:00+10nne2393100 0.5 1019343
15:00+10nne1294100 1.1 1019252
18:00+10ne1295100 0.1 1019236
21:00+10ne1196100 0.2 1020123